Regional Weather Roundup
Issued by NWS

Home | Current Version | Previous Version | Graphics & Text | Print | Product List | Glossary On
Versions: 1 2 3 4 5 6 7 8 9 10 11 12 13 14 15 16 17 18 19 20 21 22 23 24 25 26 27 28 29 30 31 32 33 34 35 36 37 38 39 40 41 42 43 44 45 46 47 48 49 50
000
ASUS43 KLOT 290958
RWRIL

ILLINOIS REGIONAL WEATHER ROUNDUP
NATIONAL WEATHER SERVICE CHICAGO/ROMEOVILLE IL
500 AM CDT FRI AUG 29 2014

NOTE: "FAIR" INDICATES FEW OR NO CLOUDS BELOW 12,000 FEET WITH NO
SIGNIFICANT WEATHER AND/OR OBSTRUCTIONS TO VISIBILITY.

* THESE STATIONS ARE NOT UNDER NWS QUALITY CONTROL. THEY ALSO MAY NOT
  REPORT WEATHER SUCH AS PRECIPITATION OR FOG.

ILZ001-002-007-009-015-016-024-291100-
NORTHWEST ILLINOIS

CITY           SKY/WX    TMP DP  RH WIND       PRES   REMARKS
MOLINE         PTCLDY    70  67  90 S8        29.91F
$$

ILZ003-004-008-010-011-017-018-291100-
NORTH CENTRAL ILLINOIS

CITY           SKY/WX    TMP DP  RH WIND       PRES   REMARKS
ROCKFORD       NOT AVBL
$$

ILZ005-006-012>014-019>023-291100-
NORTHEAST ILLINOIS

CITY           SKY/WX    TMP DP  RH WIND       PRES   REMARKS
CHICAGO-OHARE  CLOUDY    71  63  75 S6        29.97S
CHICAGO-MIDWAY CLOUDY    73  66  78 S9        29.98R
AURORA         CLOUDY    69  66  90 SE6       29.97S FOG
WAUKEGAN       CLOUDY    71  65  81 SE6       29.97S
DUPAGE AIRPORT CLOUDY    70  66  87 SE6       29.97S
WHEELING       CLOUDY    72  65  78 S7        29.98F
NORTHERLY ISL    N/A     71  63  75 SE7         N/A
$$

LMZ740>746-291100-
SOUTHERN LAKE MICHIGAN

STATION/POSITION SKY/WX   TEMP    WIND        PRES    VSBY  WAVE
                          AIR SEA DIR/SP/G                  HT/PER
                          (F)     (DEG/KT/KT) (MB)    (MI)  (FT/S)
WAUKEGAN HARBOR            72     170/  9/ 11   N/A
HARRISON CRIB              72     170/ 17/ 19   N/A
BURNHAM HARBOR             71     160/  7/ 11   N/A
CALUMET HARBOR             72     160/  7/ 12 1014.0F
MICHIGAN CITY              70     130/ 14/ 17   N/A
MICHIGAN CITY 6N           71 72  160/ 12/ 16   N/A           2/ 2
ST. JOSEPH                 69 70  150/ 14/ 17   N/A           2/ 2
$$

ILZ025>027-034>036-040-047-049-050-058-095>099-291100-
WEST-CENTRAL ILLINOIS

CITY           SKY/WX    TMP DP  RH WIND       PRES   REMARKS
$$

ILZ028>032-037-038-041>044-048-051>054-059>061-291100-
CENTRAL ILLINOIS

CITY           SKY/WX    TMP DP  RH WIND       PRES   REMARKS
PEORIA         NOT AVBL
SPRINGFIELD    MOCLDY    72  70  93 S5        29.96R
TAYLORVILLE    NOT AVBL
$$

ILZ033-039-045-046-055>057-062-063-291100-
EAST-CENTRAL ILLINOIS

CITY           SKY/WX    TMP DP  RH WIND       PRES   REMARKS
CHAMPAIGN      MOCLDY    71  69  93 SE7       29.99R
MATTOON        MOCLDY    71  70  96 SE3       29.98S
$$

ILZ079-100>102-291100-
SOUTHWEST ILLINOIS

CITY           SKY/WX    TMP DP  RH WIND       PRES   REMARKS
CAHOKIA*       CLEAR     72  71  97 CALM      29.95S FOG
$$

ILZ064>066-069>071-074>076-080>082-084>086-088>090-092>094-291100-
SOUTH-CENTRAL ILLINOIS

CITY           SKY/WX    TMP DP  RH WIND       PRES   REMARKS
CARBONDALE     PTCLDY    70  68  93 CALM      29.96S FOG
$$

ILZ067-068-072-073-078-083-087-091-291100-
SOUTHEAST ILLINOIS

CITY           SKY/WX    TMP DP  RH WIND       PRES   REMARKS
LAWRENCEVILLE  MOCLDY    74  72  93 E6        29.98S FOG
$$

ABBREVIATIONS USED IN REMARKS
   TC - TEMPERATURE IN CELSIUS
  WCI - WIND CHILL INDEX
   HX - HEAT INDEX
  VSB - VISIBILITY
$$



USA.gov is the U.S. government's official web portal to all federal, state and local government web resources and services.